Погода в Балансу

Россия / Чеченская Республика     43°07′16″N   46°23′18″E
темп.,
°C
ветер,
м/с
пор.,
м/с
влажн.,
%
обл.,
%
осадки,
мм/ч
давл.,
гПа
погр.,
м
14 апреля, ср
ср1400:00+6ююв22784 0.0 101722
03:00+6ююв117911 0.0 101514
06:00+5зюз118447 0.0 101635
09:00+9сз337597 0.0 1016775
12:00+7сз3592100 0.3 1017722
15:00+5зюз2592100 4.5 1018396
18:00+6зюз3782100 1.2 1017506
21:00+5юз368398 1.2 1019185
15 апреля, чт
чт1500:00+4юз33852 0.0 101845
03:00+3ююз358861 0.0 101990
06:00+4юз337942 0.0 101963
09:00+10зсз34570 0.0 1017800
12:00+14ссз44444 0.0 10161564
15:00+13с334797 0.0 10161610
18:00+10ссв116399 0.0 101784
21:00+8ю2170100 0.0 101812
16 апреля, пт
пт1600:00+7ю227197 0.0 101812
03:00+7ю22745 0.0 101814
06:00+7ююв227255 0.0 101916
09:00+13св23538 0.0 10181045
12:00+15св435044 0.4 10161372
15:00+15св335252 1.7 10161195
18:00+12всв127029 1.9 101632
21:00+10ю22725 2.1 101814
17 апреля, сб
сб1700:00+9юз22778 0.3 101921
03:00+8ю22747 0.3 101818
06:00+8ююв2173100 0.0 101820
09:00+12ссз2265100 0.0 1018702
12:00+11сз4476100 0.1 1020910
15:00+9сз2389100 0.3 1021572
18:00+8ссз1196100 0.9 1022212
21:00+7сз1196100 1.3 1023138
18 апреля, вс
вс1800:00+7ссв1199100 0.8 1022166
03:00+7св2299100 0.9 1021168
06:00+7всв1298100 0.1 1020216
09:00+9в1289100 0.1 1018366
12:00+12ссв2176100 0.0 1016551
15:00+12с3278100 0.1 1015670
18:00+11ссз1287100 0.9 1015100
21:00+8з129899 1.1 1018120